Temperature
19 18 18 17 16 15 15 15 15 15 14 14 14 14 14 14 14 14 14 14 14 13 13 13 13 13 13 13 14 14 14 14 14 14 13 13 13 13 13 14 13 13 14
19 18 17 17 16 15 15 15 15 14 14 14 14 14 14 14 14 13 13 13 13 13 13 13 13 13 13 13 14 14 14 14 14 13 13 13 13 13 13 13 13 13 13
19 18 17 16 16 15 15 15 15 14 14 14 14 14 14 13 13 13 13 13 13 13 13 13 13 12 13 13 13 13 13 13 13 13 12 12 12 12 12 12 12 12 12
18 17 17 16 16 15 15 15 15 14 14 14 14 13 13 13 13 13 12 12 12 12 12 12 12 12 12 13 13 13 13 13 13 12 12 11 11 12 12 12 12 12 12
18 17 16 16 16 15 15 15 14 14 14 14 13 13 13 12 12 12 12 12 12 12 12 12 12 12 12 13 13 13 13 13 13 12 11 11 11 11 11 12 12 12 12
17 16 16 16 15 15 15 14 14 14 14 14 13 13 12 12 12 12 12 12 12 12 12 12 12 12 12 13 13 13 13 13 12 11 11 11 11 11 11 11 11 11 11
17 16 15 16 15 15 14 14 14 14 14 13 13 12 12 12 12 12 12 12 12 12 12 12 12 12 12 12 13 13 13 12 11 11 11 11 11 11 11 11 11 11 11
17 16 15 15 15 14 14 14 14 14 13 13 13 12 12 12 12 12 12 12 12 12 12 12 12 12 12 12 12 12 12 12 11 11 10 10 11 11 11 10 11 11 11
16 16 15 15 14 14 14 14 14 14 13 13 12 12 12 12 12 12 12 12 11 11 11 11 11 12 12 12 12 12 12 12 11 10 10 10 10 10 10 10 10 10 10
16 15 15 14 14 14 14 14 14 14 13 13 12 12 12 12 12 11 11 11 11 11 11 11 11 12 12 12 12 12 12 11 10 10 10 10 10 10 10 10 10 10 10
16 15 15 14 14 14 14 14 14 13 13 13 12 12 12 11 11 11 11 11 11 11 11 11 11 11 12 12 12 12 11 10 10 10 10 10 10 10 10 10 10 10 10
17 16 15 15 14 14 14 13 13 13 13 12 12 12 11 11 11 11 11 11 11 11 11 11 11 11 11 11 11 11 10 10 10 10 10 11 10 10 10 10 10 10 10
17 16 16 15 15 14 14 13 13 13 13 12 12 12 11 11 11 11 11 11 11 11 10 11 11 11 10 10 10 10 10 10 10 10 10 10 10 10 10 10 10 10 10
17 17 17 16 15 15 14 14 13 13 13 13 13 12 12 11 11 11 11 11 10 10 10 10 10 10 10 10 10 10 10 10 10 10 10 10 10 10 10 10 10 10 10
18 17 17 16 16 15 14 14 14 14 13 13 13 12 12 12 12 11 11 11 11 10 11 10 10 10 10 10 10 10 10 10 10 10 10 10 10 10 10 10 10 10 10
18 18 17 17 16 16 15 15 14 14 14 13 13 13 12 12 12 12 11 11 11 11 10 10 10 10 10 10 10 10 10 10 10 10 10 10 10 10 10 10 10 10 10
18 18 17 17 16 16 16 15 14 14 14 13 13 13 13 12 12 12 11 11 11 11 10 10 10 10 10 10 10 10 10 10 10 10 10 10 10 10 10 10 10 10 10
18 18 17 17 17 16 16 15 15 14 14 14 13 13 13 13 12 12 11 11 11 11 10 10 10 10 10 10 10 10 10 10 10 10 10 10 10 10 10 10 10 10 10
18 18 17 17 17 16 16 15 15 15 14 14 14 13 13 13 12 12 12 11 11 11 10 10 10 10 10 10 9 9 9 9 9 10 10 10 10 10 10 10 10 10 10
18 18 17 17 17 16 15 15 14 14 14 14 14 14 13 13 13 12 12 11 11 10 10 10 10 10 10 9 9 9 9 9 10 10 10 10 10 10 10 10 10 10 10
18 18 17 17 17 16 15 15 14 15 15 14 14 14 14 13 13 12 12 11 11 11 11 10 10 10 10 9 9 9 9 9 10 10 10 10 10 10 10 10 10 10 10
18 18 18 17 17 16 16 16 16 16 15 15 15 14 14 14 13 13 12 12 12 11 11 10 10 10 9 9 9 9 9 10 10 10 10 10 10 10 10 10 10 9 9
17 17 17 17 17 17 17 16 15 14 14 14 14 14 14 14 14 13 13 12 12 12 11 11 10 10 10 10 9 9 10 11 10 10 10 10 10 10 10 10 9 9 9
17 17 17 17 17 17 16 15 15 15 15 15 15 15 15 15 14 14 13 13 12 12 12 11 11 11 10 10 10 9 9 10 10 10 10 10 10 10 10 10 9 9 9
17 17 17 17 17 16 16 15 15 15 15 15 15 15 14 14 14 14 14 13 13 12 12 11 11 11 10 10 10 10 9 9 9 9 9 9 9 10 9 9 9 9 9
17 17 17 17 17 16 16 15 15 15 15 14 14 14 14 14 14 14 14 14 13 13 12 12 11 11 11 10 10 10 10 9 9 9 9 9 9 9 9 9 9 9 9
Wind_Speed
11 17 20 20 19 18 17 16 15 15 14 14 13 13 13 12 12 12 12 12 12 12 12 12 12 13 13 13 13 14 14 14 14 14 14 14 14 14 13 12 10 13 14
14 19 21 20 20 19 18 17 16 15 14 14 13 13 12 12 12 12 12 12 12 12 12 12 12 12 13 13 13 13 13 13 13 13 12 12 13 13 13 13 13 13 14
16 19 21 20 20 19 18 17 16 15 15 14 13 13 12 12 12 12 12 12 12 12 12 13 13 13 13 13 13 13 13 12 12 10 8 10 12 13 13 13 13 13 13
16 18 20 21 20 20 19 18 17 16 15 14 14 13 12 12 12 12 12 12 12 12 12 12 12 12 12 12 12 12 12 11 10 6 7 9 10 12 12 12 12 13 13
16 17 18 21 21 20 19 18 17 16 15 14 14 13 13 12 12 12 12 12 12 11 11 11 11 11 11 11 11 11 10 10 7 6 9 8 9 11 11 11 11 11 12
15 17 18 21 21 20 19 18 17 16 16 15 14 14 13 13 12 12 12 11 11 11 11 10 10 10 10 10 10 10 9 7 5 7 7 7 8 9 9 9 10 10 10
15 16 19 21 21 20 19 19 18 17 16 15 14 14 13 13 13 12 12 11 11 10 10 9 9 9 9 9 9 8 8 5 5 6 6 7 8 7 7 8 8 9 9
14 15 17 20 20 20 19 19 18 17 16 15 14 14 14 13 12 12 11 11 10 10 9 9 9 8 8 8 8 7 6 3 5 5 5 6 6 6 6 7 7 7 7
14 14 15 19 19 19 19 19 19 18 17 16 15 14 14 13 13 12 11 10 10 9 9 9 8 8 8 7 7 6 5 2 3 4 4 5 5 4 5 5 6 6 6
13 14 15 16 18 18 19 19 19 18 17 16 15 14 14 13 12 11 11 11 10 9 9 8 8 7 7 7 6 6 5 3 4 4 3 4 3 3 4 4 5 5 5
14 14 15 15 16 17 17 18 19 18 17 16 15 15 15 13 13 12 11 11 10 9 9 9 8 7 7 7 6 5 4 3 3 2 3 3 1 2 3 3 3 3 3
18 17 16 16 16 16 15 16 16 16 16 16 15 16 14 12 11 10 11 10 10 9 9 8 8 7 6 6 7 6 4 3 3 2 3 2 0 1 1 1 1 1 1
18 18 17 17 16 15 13 14 12 13 14 15 16 16 14 12 10 10 10 11 10 10 9 9 9 7 6 5 4 5 4 3 3 2 3 1 2 2 2 2 2 1 1
17 19 18 18 16 16 15 13 13 12 12 12 15 16 14 10 10 10 9 10 10 9 8 8 7 7 6 6 6 5 5 4 4 3 2 2 3 4 4 4 4 3 3
18 19 19 19 19 17 15 13 13 13 13 14 14 16 16 11 10 10 9 9 10 9 9 8 8 7 7 6 6 6 6 6 5 5 4 4 4 5 6 6 5 5 5
19 19 19 20 20 19 16 15 14 14 14 14 14 16 17 14 12 11 10 10 10 10 9 8 8 7 6 6 6 6 6 6 6 6 6 5 6 7 7 7 7 7 6
19 19 20 20 20 20 19 17 14 14 15 14 14 17 18 16 14 12 10 10 10 11 10 9 9 7 6 6 7 7 7 7 7 8 7 7 7 8 8 8 9 8 8
17 18 20 17 20 21 20 17 14 15 15 14 15 16 19 19 17 14 11 11 12 11 10 8 8 8 7 7 7 7 7 6 8 9 8 8 8 7 8 9 9 9 9
17 18 19 20 21 21 20 17 15 15 15 15 15 15 18 20 19 15 12 12 13 10 10 9 9 9 8 8 7 6 7 7 8 8 9 9 9 9 8 8 9 10 10
16 17 18 19 21 20 17 15 13 15 14 14 15 16 19 19 20 17 13 14 13 11 10 11 11 10 8 7 7 7 8 8 8 9 9 9 9 10 10 9 8 9 10
15 16 18 19 20 18 15 16 15 16 15 15 15 18 20 20 20 18 13 14 14 13 13 13 11 11 10 7 6 7 8 10 10 9 8 8 9 10 10 10 9 8 8
15 16 18 19 19 19 17 17 16 16 15 15 14 17 20 20 20 17 18 15 15 13 15 15 13 10 9 9 7 6 6 7 8 9 8 8 9 8 9 10 10 10 9
14 16 16 19 20 21 20 15 13 13 12 13 16 16 19 21 21 20 20 17 16 15 14 16 15 15 11 11 10 8 5 6 4 6 8 8 8 8 8 9 10 11 11
14 13 16 18 19 20 20 18 19 17 17 19 17 16 18 21 22 21 21 20 18 16 16 16 16 14 14 11 10 11 10 6 6 4 5 7 8 9 9 8 9 10 11
12 12 14 16 18 19 20 21 21 20 19 16 16 18 18 19 21 21 21 20 19 17 18 18 17 17 14 14 11 9 10 9 10 8 7 6 7 8 8 9 8 8 10
9 9 11 14 16 18 20 21 22 24 22 20 19 18 17 15 17 22 21 20 20 18 18 18 18 19 16 16 13 11 9 8 9 10 11 10 8 7 7 7 8 8 8
Wind_Direction
169 166 167 168 164 163 159 156 153 147 142 138 134 130 125 121 116 114 113 110 108 108 107 104 102 98 95 92 90 87 84 80 77 75 76 76 77 76 71 65 66 70 64
161 165 166 168 166 165 161 158 154 149 145 142 139 134 129 124 123 122 118 114 111 109 109 108 104 103 101 96 93 90 86 82 78 75 78 82 76 73 70 64 61 66 64
159 163 167 170 168 166 163 160 156 152 150 147 143 140 135 130 129 126 122 119 115 111 107 106 104 103 101 97 94 92 87 84 80 77 83 81 79 72 70 66 66 65 63
161 165 169 169 170 167 165 163 160 157 155 153 149 145 141 136 134 129 125 122 119 114 109 106 105 104 102 99 97 93 89 84 79 78 81 77 77 70 68 66 65 64 62
165 169 167 168 170 168 167 166 164 162 160 158 155 151 146 143 140 134 130 127 122 118 114 111 109 108 106 103 100 96 92 87 87 87 81 79 76 70 69 68 66 65 63
168 170 167 171 171 170 169 169 168 166 164 161 160 157 154 151 146 141 135 132 129 125 121 118 116 114 110 108 106 102 97 94 111 92 87 82 78 72 70 71 69 66 63
170 172 169 173 173 173 173 172 171 170 168 166 164 163 162 158 152 146 142 140 136 131 128 125 123 120 115 112 110 106 101 92 101 96 88 82 75 71 71 72 73 69 64
172 174 171 175 177 177 177 175 174 174 173 171 170 169 167 163 158 155 151 148 146 141 136 134 132 129 125 119 113 109 104 114 117 105 96 87 73 76 75 71 72 70 66
177 178 177 178 181 181 179 177 177 177 177 176 175 173 169 165 164 161 158 156 154 150 146 144 141 139 134 127 121 115 110 116 133 111 104 92 72 80 82 76 72 69 65
184 186 185 184 184 184 183 181 180 179 180 179 177 173 166 165 167 164 166 163 163 159 157 153 148 148 141 133 127 123 132 186 134 129 118 95 75 87 88 86 79 71 66
193 193 192 190 188 188 186 182 182 181 182 179 178 171 170 177 175 173 171 164 169 168 166 163 160 155 150 143 137 142 180 182 147 140 123 88 89 102 97 91 86 76 68
197 197 195 194 192 190 187 184 188 187 185 188 186 181 186 185 181 176 158 167 175 175 173 168 162 166 182 168 159 182 191 184 175 163 135 100 208 154 134 120 119 98 66
200 198 199 196 195 192 190 189 190 190 190 193 191 187 187 186 181 181 177 176 182 183 184 173 182 188 191 184 187 195 195 197 199 187 167 170 254 236 223 222 206 211 247
204 202 202 199 198 196 195 193 192 192 192 192 192 191 189 189 191 188 189 187 188 190 191 193 199 193 197 198 204 204 203 212 214 213 191 205 258 252 246 241 225 231 242
209 206 204 201 200 199 199 198 197 197 195 194 193 195 195 194 194 192 194 192 196 194 195 200 202 199 203 205 210 215 218 222 225 227 218 214 249 257 251 247 240 243 249
213 209 205 204 203 201 201 203 200 200 199 198 196 199 199 200 198 196 197 197 200 201 202 205 207 207 211 212 216 221 226 229 232 234 238 225 229 246 252 251 247 249 256
218 212 207 206 205 204 204 207 205 202 200 201 200 201 201 203 202 200 202 201 203 203 204 208 210 214 217 217 223 225 229 235 238 240 240 242 235 228 238 247 247 249 255
221 215 210 205 207 207 206 208 208 205 203 203 202 203 204 205 204 203 205 207 204 202 204 207 210 212 215 219 225 225 230 233 241 244 241 239 240 237 228 231 244 249 253
223 217 212 208 208 208 208 208 210 207 206 206 204 205 205 206 205 206 208 208 205 205 207 209 212 215 218 221 229 234 238 239 241 241 242 240 238 237 238 226 234 247 252
225 219 214 210 210 208 207 209 212 212 210 209 207 207 206 206 206 208 210 210 206 207 210 211 213 216 223 222 228 239 244 243 242 241 243 240 234 233 236 238 236 235 239
224 219 215 211 209 206 203 204 207 210 209 209 210 210 208 208 206 207 209 210 208 211 212 213 214 217 219 217 225 241 244 240 241 240 237 237 234 231 232 234 238 241 239
224 219 216 213 209 207 206 205 208 210 209 210 210 212 211 210 209 207 210 210 209 213 215 215 212 214 215 207 216 233 247 235 227 230 230 232 236 228 229 232 235 238 244
227 222 218 214 212 209 208 207 208 211 210 210 212 212 212 211 211 209 211 212 211 212 215 214 210 212 214 209 214 218 230 238 233 215 224 228 229 228 230 231 234 237 240
232 226 222 219 215 211 207 207 206 208 209 211 210 211 211 211 211 211 212 213 213 213 215 215 213 214 215 214 212 225 236 252 244 239 219 224 228 233 235 233 237 237 237
238 229 223 221 218 213 209 209 211 215 216 215 212 212 212 211 213 212 212 212 214 214 216 215 212 213 214 217 211 209 223 234 241 247 252 237 231 233 235 237 239 240 237
244 233 226 223 221 216 213 213 215 216 216 216 213 212 212 212 212 213 213 213 214 214 215 215 214 213 214 218 217 213 211 214 219 227 241 249 249 239 234 236 238 236 234
Height
1503 1505 1507 1510 1512 1514 1516 1518 1520 1521 1522 1523 1524 1524 1525 1525 1526 1526 1527 1527 1528 1528 1528 1528 1528 1528 1528 1528 1528 1528 1528 1528 1528 1528 1528 1528 1528 1528 1528 1528 1528 1528 1527
1502 1505 1507 1509 1512 1514 1516 1518 1519 1520 1522 1523 1524 1524 1525 1526 1526 1527 1527 1528 1528 1528 1529 1529 1529 1529 1529 1529 1529 1529 1529 1529 1529 1529 1529 1530 1529 1529 1529 1528 1528 1528 1527
1502 1504 1506 1509 1511 1513 1515 1517 1519 1520 1521 1522 1524 1524 1525 1526 1526 1527 1528 1528 1528 1529 1529 1529 1529 1529 1529 1529 1529 1529 1529 1530 1530 1530 1531 1532 1531 1530 1530 1529 1529 1528 1528
1502 1504 1506 1508 1511 1513 1515 1517 1518 1520 1521 1522 1523 1524 1525 1526 1526 1527 1528 1528 1529 1529 1529 1529 1530 1530 1530 1530 1530 1530 1530 1531 1531 1531 1533 1533 1532 1531 1531 1530 1530 1529 1529
1501 1504 1506 1508 1510 1512 1514 1516 1518 1519 1520 1522 1523 1524 1524 1525 1526 1527 1527 1528 1528 1529 1529 1530 1530 1530 1530 1531 1531 1531 1531 1531 1532 1532 1533 1533 1532 1532 1531 1531 1530 1530 1529
1501 1503 1505 1507 1510 1512 1514 1516 1517 1519 1520 1521 1522 1523 1524 1525 1526 1527 1527 1528 1528 1529 1529 1530 1531 1531 1531 1531 1531 1531 1532 1532 1533 1533 1533 1533 1533 1532 1532 1531 1531 1530 1530
1501 1503 1505 1507 1509 1511 1513 1515 1517 1518 1519 1521 1522 1523 1524 1525 1526 1526 1527 1528 1528 1529 1530 1530 1531 1531 1531 1532 1532 1532 1532 1533 1534 1534 1534 1533 1533 1532 1532 1531 1531 1530 1530
1500 1502 1504 1506 1508 1510 1512 1514 1516 1517 1519 1520 1521 1522 1523 1524 1525 1526 1527 1528 1528 1529 1529 1530 1531 1531 1532 1532 1532 1532 1533 1533 1533 1534 1534 1534 1533 1532 1532 1532 1531 1531 1530
1500 1501 1503 1505 1507 1509 1511 1513 1515 1516 1518 1519 1520 1522 1523 1524 1525 1526 1527 1527 1528 1529 1529 1530 1530 1531 1531 1532 1532 1532 1533 1533 1535 1534 1534 1534 1533 1533 1532 1532 1532 1531 1530
1498 1500 1502 1504 1506 1508 1510 1512 1513 1515 1517 1518 1520 1521 1522 1523 1524 1525 1526 1526 1527 1528 1529 1530 1530 1531 1531 1531 1532 1532 1533 1533 1534 1534 1534 1533 1533 1533 1532 1532 1531 1531 1530
1495 1497 1499 1502 1504 1506 1508 1510 1512 1514 1515 1517 1518 1519 1521 1523 1524 1524 1525 1526 1527 1527 1528 1529 1530 1530 1531 1531 1532 1532 1533 1534 1534 1534 1533 1533 1532 1532 1532 1531 1531 1531 1530
1491 1493 1496 1499 1501 1503 1506 1508 1510 1512 1513 1515 1517 1518 1520 1521 1523 1523 1524 1525 1526 1527 1528 1528 1529 1530 1530 1531 1531 1531 1532 1533 1533 1533 1532 1532 1532 1532 1531 1531 1530 1530 1530
1489 1490 1493 1495 1497 1500 1502 1505 1507 1509 1511 1513 1515 1516 1518 1519 1520 1521 1522 1523 1524 1526 1527 1527 1528 1529 1530 1530 1530 1531 1531 1532 1532 1532 1532 1531 1531 1531 1530 1530 1530 1529 1529
1485 1487 1489 1491 1494 1496 1498 1501 1503 1505 1507 1509 1511 1513 1515 1516 1518 1519 1520 1521 1523 1524 1525 1526 1527 1528 1528 1529 1529 1530 1530 1530 1531 1531 1530 1530 1530 1530 1529 1529 1529 1528 1528
1481 1483 1485 1487 1489 1492 1494 1496 1499 1501 1503 1506 1508 1510 1511 1513 1515 1516 1518 1519 1520 1522 1523 1524 1525 1526 1527 1527 1528 1528 1529 1529 1529 1529 1529 1528 1528 1528 1528 1528 1527 1527 1526
1476 1478 1480 1482 1485 1487 1489 1491 1494 1497 1499 1502 1504 1506 1508 1510 1512 1513 1515 1516 1518 1519 1521 1522 1523 1524 1525 1525 1526 1526 1526 1527 1527 1527 1527 1526 1526 1526 1526 1525 1525 1525 1524
1471 1473 1475 1477 1480 1482 1485 1487 1490 1492 1495 1497 1499 1502 1504 1506 1508 1510 1512 1513 1515 1516 1518 1519 1521 1521 1522 1523 1523 1524 1524 1524 1524 1524 1524 1524 1524 1523 1523 1523 1523 1522 1522
1466 1467 1469 1471 1474 1477 1479 1482 1485 1487 1490 1492 1495 1497 1499 1502 1504 1506 1508 1510 1511 1513 1514 1516 1517 1518 1519 1520 1521 1521 1521 1521 1521 1521 1521 1521 1521 1520 1520 1520 1520 1519 1519
1460 1461 1463 1465 1467 1470 1474 1477 1480 1482 1484 1487 1489 1492 1494 1497 1499 1501 1503 1506 1508 1509 1511 1512 1513 1515 1516 1517 1518 1518 1518 1518 1518 1518 1518 1517 1517 1517 1517 1516 1516 1516 1515
1453 1455 1456 1458 1461 1464 1468 1471 1473 1476 1478 1481 1483 1486 1489 1491 1494 1497 1499 1501 1503 1505 1506 1508 1509 1511 1512 1513 1514 1514 1514 1514 1514 1514 1514 1514 1513 1513 1513 1513 1512 1512 1512
1446 1447 1449 1451 1454 1457 1460 1462 1465 1467 1471 1474 1476 1480 1483 1486 1488 1491 1493 1496 1498 1499 1501 1503 1505 1507 1508 1510 1511 1511 1511 1510 1510 1509 1509 1509 1509 1509 1509 1509 1508 1508 1507
1439 1440 1442 1444 1446 1448 1451 1455 1458 1461 1464 1467 1470 1473 1476 1479 1482 1484 1487 1489 1492 1494 1496 1498 1500 1501 1503 1505 1506 1508 1508 1508 1504 1504 1504 1504 1505 1505 1504 1504 1504 1504 1503
1432 1433 1435 1437 1439 1441 1444 1448 1451 1455 1457 1460 1462 1465 1468 1472 1475 1477 1480 1483 1485 1488 1489 1491 1493 1495 1497 1499 1501 1503 1504 1502 1502 1500 1499 1500 1500 1500 1500 1500 1499 1499 1498
1426 1427 1428 1430 1432 1434 1437 1440 1442 1444 1446 1449 1453 1457 1460 1464 1467 1470 1473 1476 1478 1480 1483 1485 1487 1489 1491 1493 1494 1495 1497 1498 1499 1497 1496 1495 1495 1495 1495 1495 1494 1494 1493
1420 1421 1422 1423 1425 1427 1429 1432 1434 1436 1439 1444 1447 1450 1453 1456 1459 1462 1465 1468 1470 1473 1475 1478 1480 1482 1484 1486 1487 1488 1490 1491 1492 1493 1492 1491 1490 1490 1490 1490 1489 1489 1488
1414 1414 1415 1416 1418 1420 1422 1424 1426 1428 1432 1435 1438 1441 1444 1447 1450 1453 1456 1459 1462 1464 1467 1470 1472 1474 1477 1479 1480 1482 1483 1484 1484 1486 1486 1486 1486 1485 1484 1484 1483 1483 1482